Location: Seasalter
(51.3333°N, 1.0167°E)
Time: 13:15:19
(UTC+00:00)

ALOS - Pass Details

Date: 26 September 2023
Orbit: 676 x 679 km, 98.0° (Epoch: 29 November)

Event Time Altitude Azimuth Distance (km) Brightness Sun altitude
Rises 04:35:19 0° 3° (N) 3,058 5.8 -12.1°
Reaches altitude 10° 04:38:11 10° 345° (NNW) 2,137 4.8 -11.6°
Maximum altitude 04:41:17 18° 303° (WNW) 1,660 3.9 -11.2°
Enters shadow 04:43:19 14° 273° (W) 1,875 3.9 -10.8°
